S51UL-6 Weather Reports


time (UTC)temp
C
wind
direction
speed
KPH
gust
KPH
rain 1hr
cm
rain 24hr
cm
rain mn
cm
humidity
%
barometer
mb
20260506180310 17 135 6.4 9.7 0.00 0.00 0.00 65 1009.3
20260506175811 17 158 6.4 16.1 0.00 0.00 0.00 65 1009.6
20260506175310 17 158 6.4 16.1 0.00 0.00 0.00 65 1009.6
20260506174811 17 158 8.0 11.3 0.00 0.00 0.00 65 1009.4
20260506173811 18 158 8.0 11.3 0.00 0.00 0.00 64 1009.3
20260506173311 18 158 6.4 9.7 0.00 0.00 0.00 64 1009.3
20260506172811 18 158 6.4 12.9 0.00 0.00 0.00 63 1009.2
20260506172311 18 158 8.0 12.9 0.00 0.00 0.00 63 1009.1
20260506170812 18 135 4.8 9.7 0.00 0.00 0.00 62 1009.2
20260506170311 18 135 6.4 8.0 0.00 0.00 0.00 62 1009.4
20260506165811 18 180 6.4 9.7 0.00 0.00 0.00 62 1009.3
20260506165311 18 135 6.4 9.7 0.00 0.00 0.00 62 1009.3
20260506164811 19 135 8.0 12.9 0.00 0.00 0.00 62 1009.3
20260506164311 19 158 8.0 12.9 0.00 0.00 0.00 62 1009.4
20260506163811 19 158 8.0 11.3 0.00 0.00 0.00 62 1009.5
20260506163313 19 158 4.8 8.0 0.00 0.00 0.00 61 1009.5
20260506161812 18 158 6.4 14.5 0.00 0.00 0.00 61 1009.7
20260506161312 18 158 8.0 14.5 0.00 0.00 0.00 61 1009.7
20260506160812 18 158 6.4 16.1 0.00 0.00 0.00 61 1009.5
20260506160312 18 158 9.7 16.1 0.00 0.00 0.00 61 1009.8
20260506155812 19 158 9.7 16.1 0.00 0.00 0.00 60 1009.8
20260506155313 19 135 9.7 12.9 0.00 0.00 0.00 60 1009.6
20260506154812 19 158 8.0 11.3 0.00 0.00 0.00 60 1009.7
20260506153812 19 180 9.7 20.9 0.00 0.00 0.00 59 1009.8
20260506153312 20 158 11.3 19.3 0.00 0.00 0.00 59 1009.7
20260506152313 20 203 3.2 9.7 0.00 0.00 0.00 58 1009.8
20260506151315 20 158 6.4 16.1 0.00 0.00 0.00 57 1010.0
20260506150313 20 158 0.0 1.6 0.00 0.00 0.00 56 1009.9
20260506145313 21 158 3.2 14.5 0.00 0.00 0.00 57 1010.0
20260506144313 21 158 9.7 22.5 0.00 0.00 0.00 55 1009.9
20260506143813 21 180 19.3 24.1 0.00 0.00 0.00 56 1009.9
20260506143313 21 180 14.5 24.1 0.00 0.00 0.00 54 1009.9
20260506142813 21 180 11.3 20.9 0.00 0.00 0.00 54 1010.1
20260506141813 22 158 11.3 22.5 0.00 0.00 0.00 53 1010.0
20260506141314 22 158 9.7 20.9 0.00 0.00 0.00 54 1010.1
20260506140313 22 180 11.3 20.9 0.00 0.00 0.00 55 1010.0
20260506135313 21 248 9.7 14.5 0.00 0.00 0.00 56 1010.3
20260506134813 21 158 3.2 11.3 0.00 0.00 0.00 57 1010.2
20260506133813 21 135 6.4 11.3 0.00 0.00 0.00 56 1010.4
20260506133314 21 180 8.0 9.7 0.00 0.00 0.00 56 1010.5
20260506132813 21 158 14.5 27.4 0.00 0.00 0.00 56 1010.2
20260506132313 21 158 14.5 27.4 0.00 0.00 0.00 56 1010.3
20260506131814 21 158 14.5 20.9 0.00 0.00 0.00 57 1010.4
20260506131314 20 158 17.7 25.7 0.00 0.00 0.00 56 1010.3
20260506130814 21 180 19.3 25.7 0.00 0.00 0.00 55 1010.4
20260506125314 21 158 12.9 16.1 0.00 0.00 0.00 54 1010.4
20260506124815 22 158 17.7 22.5 0.00 0.00 0.00 55 1010.5
20260506124315 21 158 16.1 22.5 0.00 0.00 0.00 55 1010.3
20260506123814 21 158 14.5 27.4 0.00 0.00 0.00 53 1010.4
20260506123315 22 158 14.5 27.4 0.00 0.00 0.00 52 1010.3
20260506122814 22 135 8.0 11.3 0.00 0.00 0.00 53 1010.1
20260506122316 22 158 11.3 16.1 0.00 0.00 0.00 52 1010.3
20260506121814 22 158 11.3 16.1 0.00 0.00 0.00 52 1010.4
20260506121316 22 158 9.7 12.9 0.00 0.00 0.00 52 1010.4
20260506120814 22 158 14.5 20.9 0.00 0.00 0.00 52 1010.4
20260506120314 22 135 17.7 20.9 0.00 0.00 0.00 51 1010.4
20260506115814 23 135 14.5 20.9 0.00 0.00 0.00 50 1010.5
20260506115315 23 135 12.9 19.3 0.00 0.00 0.00 51 1010.5
20260506114814 23 180 16.1 25.7 0.00 0.00 0.00 50 1010.5
20260506114315 23 135 14.5 25.7 0.00 0.00 0.00 51 1010.3
20260506113815 22 135 12.9 17.7 0.00 0.00 0.00 53 1010.4
20260506113316 22 158 14.5 20.9 0.00 0.00 0.00 53 1010.5
20260506112815 22 135 11.3 20.9 0.00 0.00 0.00 53 1010.6
20260506112315 22 158 11.3 14.5 0.00 0.00 0.00 55 1010.8
20260506111815 21 180 12.9 14.5 0.00 0.00 0.00 56 1010.8
20260506111318 21 158 4.8 14.5 0.00 0.00 0.00 58 1011.1
20260506110815 20 180 1.6 4.8 0.00 0.00 0.00 58 1010.9
20260506110316 20 180 1.6 9.7 0.00 0.00 0.00 58 1011.0
20260506105815 20 180 6.4 11.3 0.00 0.00 0.00 58 1010.9
20260506105315 20 180 6.4 11.3 0.00 0.00 0.00 57 1011.2
20260506104815 20 180 8.0 9.7 0.00 0.00 0.00 56 1011.0
20260506104315 20 158 9.7 14.5 0.00 0.00 0.00 56 1011.1
20260506102816 21 158 6.4 12.9 0.00 0.00 0.00 54 1011.1
20260506102316 21 158 6.4 9.7 0.00 0.00 0.00 56 1011.2
20260506100816 21 113 0.0 0.0 0.00 0.00 0.00 55 1011.4
20260506095316 21 293 0.0 0.0 0.00 0.00 0.00 54 1011.5
20260506094816 21 225 0.0 6.4 0.00 0.00 0.00 55 1011.4
20260506094316 21 158 3.2 8.0 0.00 0.00 0.00 55 1011.3
20260506093817 21 113 1.6 8.0 0.00 0.00 0.00 56 1011.0
20260506093316 20 113 3.2 9.7 0.00 0.00 0.00 55 1011.2
20260506092816 20 158 4.8 9.7 0.00 0.00 0.00 54 1011.2
20260506092316 21 225 0.0 0.0 0.00 0.00 0.00 55 1011.2
20260506091816 21 225 0.0 1.6 0.00 0.00 0.00 55 1011.2
20260506091319 21 225 0.0 1.6 0.00 0.00 0.00 54 1011.1
20260506090817 21 203 3.2 14.5 0.00 0.00 0.00 53 1011.1
20260506090316 21 248 3.2 14.5 0.00 0.00 0.00 52 1011.0
20260506085816 22 158 3.2 11.3 0.00 0.00 0.00 52 1011.2
20260506085318 22 158 6.4 11.3 0.00 0.00 0.00 51 1011.1
20260506084817 23 180 6.4 9.7 0.00 0.00 0.00 51 1011.1
20260506084316 22 68 4.8 9.7 0.00 0.00 0.00 52 1011.0
20260506083818 22 270 4.8 9.7 0.00 0.00 0.00 53 1011.1
20260506083317 21 180 6.4 12.9 0.00 0.00 0.00 53 1011.0
20260506082818 21 248 6.4 12.9 0.00 0.00 0.00 53 1010.8
20260506082317 21 135 4.8 9.7 0.00 0.00 0.00 55 1010.8
20260506081817 20 180 3.2 8.0 0.00 0.00 0.00 54 1010.9
20260506080817 21 225 3.2 12.9 0.00 0.00 0.00 53 1010.7
20260506080317 21 180 6.4 12.9 0.00 0.00 0.00 53 1010.7
20260506073319 20 135 1.6 8.0 0.00 0.00 0.00 64 1010.6
20260506072818 19 158 6.4 9.7 0.00 0.00 0.00 66 1010.5
20260506071318 18 158 1.6 6.4 0.00 0.00 0.00 69 1010.5
20260506070818 18 135 1.6 6.4 0.00 0.00 0.00 72 1010.5
20260506070318 17 158 0.0 3.2 0.00 0.00 0.00 73 1010.4
20260506061818 13 135 0.0 0.0 0.00 0.00 0.00 87 1011.0
20260506061320 13 135 0.0 0.0 0.00 0.00 0.00 88 1011.0
20260506060818 12 135 0.0 0.0 0.00 0.00 0.00 88 1011.1
20260506060320 11 23 0.0 0.0 0.00 0.00 0.00 88 1011.0
20260506051319 8 23 0.0 0.0 0.00 0.00 0.00 87 1010.9
20260506050319 7 23 0.0 0.0 0.00 0.00 0.00 87 1010.9
20260506044819 6 23 0.0 0.0 0.00 0.00 0.00 87 1010.9
20260506044320 6 23 0.0 0.0 0.00 0.00 0.00 87 1010.9
20260506043819 6 23 0.0 0.0 0.00 0.00 0.00 87 1010.7
20260506043319 6 23 0.0 0.0 0.00 0.00 0.00 87 1010.8
20260506042820 6 23 0.0 0.0 0.00 0.00 0.00 86 1010.8
20260506042319 6 23 0.0 0.0 0.00 0.00 0.00 86 1010.8
20260506041821 6 23 0.0 0.0 0.00 0.00 0.00 86 1010.7
20260506040820 6 23 0.0 0.0 0.00 0.00 0.00 86 1010.6
20260506040320 6 23 0.0 0.0 0.00 0.00 0.00 86 1010.5
20260506035820 6 23 0.0 0.0 0.00 0.00 0.00 86 1010.5
20260506034820 6 23 0.0 0.0 0.00 0.00 0.00 86 1010.4
20260506034320 6 23 0.0 0.0 0.00 0.00 0.00 86 1010.5
20260506032818 6 23 0.0 0.0 0.00 0.00 0.00 86 1010.4
20260506031820 6 23 0.0 0.0 0.00 0.00 0.00 86 1010.4
20260506031323 6 23 0.0 0.0 0.00 0.00 0.00 86 1010.5
20260506030320 6 23 0.0 0.0 0.00 0.00 0.00 85 1010.6
20260506025821 6 23 0.0 0.0 0.00 0.00 0.00 85 1010.5
20260506024819 6 23 0.0 0.0 0.00 0.00 0.00 86 1010.5
20260506024321 6 23 0.0 0.0 0.00 0.00 0.00 85 1010.5
20260506023819 6 23 0.0 0.0 0.00 0.00 0.00 85 1010.3
20260506023322 6 23 0.0 0.0 0.00 0.00 0.00 85 1010.4
20260506022821 7 23 0.0 0.0 0.00 0.00 0.00 85 1010.3
20260506021821 7 23 0.0 0.0 0.00 0.00 0.00 85 1010.2
20260506021322 7 23 0.0 0.0 0.00 0.00 0.00 85 1010.3
20260506020819 7 23 0.0 0.0 0.00 0.00 0.00 85 1010.2
20260506020319 7 23 0.0 0.0 0.00 0.00 0.00 85 1010.3
20260506015819 7 23 0.0 0.0 0.00 0.00 0.00 85 1010.1
20260506014820 7 23 0.0 0.0 0.00 0.00 0.00 85 1010.2
20260506013820 7 23 0.0 0.0 0.00 0.00 0.00 85 1010.1
20260506013322 7 23 0.0 0.0 0.00 0.00 0.00 85 1010.1
20260506012823 7 0 0.0 0.0 0.00 0.00 0.00 84 1010.1
20260506012322 7 0 0.0 0.0 0.00 0.00 0.00 84 1010.0
20260506010822 8 0 0.0 0.0 0.00 0.00 0.00 84 1010.0
20260506010322 8 0 0.0 0.0 0.00 0.00 0.00 84 1009.8
20260506005822 8 0 0.0 0.0 0.00 0.00 0.00 84 1010.0
20260506005322 8 0 0.0 0.0 0.00 0.00 0.00 84 1009.7
20260506004823 8 23 0.0 0.0 0.00 0.00 0.00 84 1010.0
20260506003822 8 23 0.0 0.0 0.00 0.00 0.00 84 1010.0
20260506002822 8 23 0.0 0.0 0.00 0.00 0.00 84 1009.8
20260506002323 8 23 0.0 0.0 0.00 0.00 0.00 84 1009.9
20260506001823 8 315 0.0 0.0 0.00 0.00 0.00 84 1010.0
20260506000822 8 315 0.0 0.0 0.00 0.00 0.00 83 1010.0
20260506000323 8 23 0.0 0.0 0.00 0.00 0.00 82 1010.1
20260505235823 8 23 0.0 0.0 0.00 0.00 0.00 82 1010.0
20260505235323 9 23 0.0 0.0 0.00 0.00 0.00 82 1010.0
20260505234823 9 0 0.0 0.0 0.00 0.00 0.00 82 1010.1
20260505233823 9 0 0.0 0.0 0.00 0.00 0.00 81 1010.2
20260505233323 9 0 0.0 0.0 0.00 0.00 0.00 81 1010.1
20260505232824 9 0 0.0 0.0 0.00 0.00 0.00 81 1010.2
20260505232323 9 23 0.0 0.0 0.00 0.00 0.00 80 1010.2
20260505231823 9 23 0.0 0.0 0.00 0.00 0.00 80 1010.1
20260505230824 10 338 0.0 0.0 0.00 0.00 0.00 79 1010.2
20260505230323 10 338 0.0 0.0 0.00 0.00 0.00 79 1010.2
20260505224824 10 23 0.0 0.0 0.00 0.00 0.00 78 1010.3
20260505223323 10 338 0.0 0.0 0.00 0.00 0.00 78 1010.4
20260505222824 10 338 0.0 0.0 0.00 0.00 0.00 78 1010.3
20260505222324 10 338 0.0 0.0 0.00 0.00 0.00 78 1010.3
20260505221824 10 338 0.0 0.0 0.00 0.00 0.00 78 1010.4
20260505221326 10 338 0.0 0.0 0.00 0.00 0.00 77 1010.3
20260505220824 10 23 0.0 0.0 0.00 0.00 0.00 77 1010.4
20260505220324 11 23 0.0 0.0 0.00 0.00 0.00 76 1010.4
20260505215324 11 68 0.0 0.0 0.00 0.00 0.00 75 1010.3
20260505214824 11 68 0.0 0.0 0.00 0.00 0.00 74 1010.4
20260505214324 11 68 0.0 0.0 0.00 0.00 0.00 74 1010.2
20260505213825 11 23 0.0 0.0 0.00 0.00 0.00 74 1010.1
20260505213324 12 23 0.0 0.0 0.00 0.00 0.00 74 1010.3
20260505212824 12 23 0.0 0.0 0.00 0.00 0.00 74 1010.3
20260505212326 12 23 0.0 0.0 0.00 0.00 0.00 73 1010.4
20260505211824 12 23 0.0 0.0 0.00 0.00 0.00 73 1010.5
20260505210826 12 203 0.0 0.0 0.00 0.00 0.00 72 1010.5
20260505210324 12 203 0.0 0.0 0.00 0.00 0.00 72 1010.4
20260505205825 12 203 0.0 0.0 0.00 0.00 0.00 72 1010.6
20260505205325 12 158 0.0 0.0 0.00 0.00 0.00 73 1010.6
20260505204325 12 158 0.0 0.0 0.00 0.00 0.00 70 1010.4
20260505203826 13 158 0.0 0.0 0.00 0.00 0.00 70 1010.7
20260505203325 13 158 0.0 0.0 0.00 0.00 0.00 70 1010.6
20260505202825 13 158 0.0 0.0 0.00 0.00 0.00 70 1010.6
20260505202325 13 158 0.0 0.0 0.00 0.00 0.00 70 1010.5
20260505201825 13 135 1.6 4.8 0.00 0.00 0.00 71 1010.6
20260505201325 13 135 1.6 4.8 0.00 0.00 0.00 70 1010.6
20260505200825 13 180 0.0 3.2 0.00 0.00 0.00 70 1010.4
20260505195913 14 135 0.0 0.0 0.00 0.00 0.00 68 1010.5
20260505195825 14 135 0.0 0.0 0.00 0.00 0.00 68 1010.5
20260505195326 14 135 0.0 0.0 0.00 0.00 0.00 68 1010.5
20260505194826 14 158 0.0 8.0 0.00 0.00 0.00 68 1010.6
20260505194326 14 158 1.6 8.0 0.00 0.00 0.00 68 1010.5
20260505193825 14 158 0.0 0.0 0.00 0.00 0.00 68 1010.7
20260505193326 15 158 0.0 0.0 0.00 0.00 0.00 67 1010.8
20260505192826 15 135 0.0 3.2 0.00 0.00 0.00 67 1010.7
20260505192326 15 135 4.8 9.7 0.00 0.00 0.00 67 1010.8
20260505191826 15 180 8.0 12.9 0.00 0.00 0.00 67 1010.8
20260505191327 15 158 9.7 12.9 0.00 0.00 0.00 67 1010.8
20260505190826 15 158 8.0 12.9 0.00 0.00 0.00 67 1010.7
20260505190326 15 158 4.8 8.0 0.00 0.00 0.00 67 1010.6
20260505185826 15 203 6.4 8.0 0.00 0.00 0.00 66 1010.8
20260505185327 15 135 4.8 8.0 0.00 0.00 0.00 65 1010.8
20260505184826 15 135 4.8 8.0 0.00 0.00 0.00 65 1010.7
20260505184326 15 135 1.6 6.4 0.00 0.00 0.00 64 1010.7
20260505183826 15 158 0.0 0.0 0.00 0.00 0.00 63 1010.8
20260505183326 15 158 3.2 9.7 0.00 0.00 0.00 63 1010.8
20260505182826 15 158 8.0 9.7 0.00 0.00 0.00 63 1010.7
20260505182326 16 180 8.0 11.3 0.00 0.00 0.00 63 1010.4
20260505181826 16 158 6.4 11.3 0.00 0.00 0.00 63 1010.7
20260505180827 16 135 9.7 12.9 0.00 0.00 0.00 62 1010.6